,,,PA_Meas_PMT16A,,PR_Meas_QMR101_102,,RH_Meas_QMH101,,SR_Meas_QMS101,,TA_Meas_QMH101,,GenWind,,GenWind,
date,time,status,PA,status,PR,status,RH,status,SR,status,TA,status,DirAvg,status,SpdAvg,
2008-07-17, 00:00:04,VALID,1008.19,VALID,0,VALID,93.5985,VALID,0,VALID,24.5515,VALID,24,VALID,0.347656,
2008-07-17, 00:01:04,VALID,1008.19,VALID,0,VALID,93.6824,VALID,0,VALID,24.5533,VALID,24,VALID,0.31875,
2008-07-17, 00:02:04,VALID,1008.2,VALID,0,VALID,93.7434,VALID,0,VALID,24.5125,VALID,24,VALID,0.343359,
2008-07-17, 00:03:04,VALID,1008.19,VALID,0,VALID,93.8349,VALID,0,VALID,24.532,VALID,24,VALID,0.422656,
2008-07-17, 00:04:04,VALID,1008.2,VALID,0,VALID,93.9493,VALID,0,VALID,24.5144,VALID,24,VALID,0.505078,
2008-07-17, 00:05:04,VALID,1008.2,VALID,0,VALID,94.0408,VALID,0,VALID,24.493,VALID,24,VALID,0.382031,
2008-07-17, 00:06:04,VALID,1008.19,VALID,0,VALID,94.056,VALID,0,VALID,24.5144,VALID,24,VALID,0.356641,
2008-07-17, 00:07:04,VALID,1008.22,VALID,0,VALID,94.0789,VALID,0,VALID,24.493,VALID,24,VALID,0.299219,
2008-07-17, 00:08:04,VALID,1008.23,VALID,0,VALID,94.0332,VALID,0,VALID,24.4949,VALID,24,VALID,0.389062,
2008-07-17, 00:09:04,VALID,1008.19,VALID,0,VALID,94.0484,VALID,0,VALID,24.454,VALID,24,VALID,0.18125,
2008-07-17, 00:10:04,VALID,1008.22,VALID,0,VALID,94.0255,VALID,0,VALID,24.4345,VALID,24,VALID,0.0792969,
2008-07-17, 00:11:04,VALID,1008.22,VALID,0,VALID,94.0255,VALID,0,VALID,24.415,VALID,24,VALID,0.251953,
2008-07-17, 00:12:04,VALID,1008.19,VALID,0,VALID,94.0332,VALID,0,VALID,24.4559,VALID,24,VALID,0.122266,
2008-07-17, 00:13:04,VALID,1008.18,VALID,0,VALID,94.0255,VALID,0,VALID,24.4345,VALID,24,VALID,0.103906,
2008-07-17, 00:14:04,VALID,1008.13,VALID,0,VALID,94.0255,VALID,0,VALID,24.4345,VALID,24,VALID,0.180469,
2008-07-17, 00:15:04,VALID,1008.11,VALID,0,VALID,94.0637,VALID,0.105969,VALID,24.4345,VALID,24,VALID,0.134375,
2008-07-17, 00:16:04,VALID,1008.11,VALID,0,VALID,94.1018,VALID,0,VALID,24.4345,VALID,24,VALID,0.455469,
2008-07-17, 00:17:04,VALID,1008.08,VALID,0,VALID,94.1171,VALID,0,VALID,24.454,VALID,26,VALID,0.107813,
2008-07-17, 00:18:04,VALID,1008.05,VALID,0,VALID,94.1476,VALID,0,VALID,24.4327,VALID,26,VALID,0.090625,
2008-07-17, 00:19:04,VALID,1008.03,VALID,0,VALID,94.1323,VALID,0,VALID,24.4327,VALID,26,VALID,0,
2008-07-17, 00:20:04,VALID,1008.01,VALID,0,VALID,94.1704,VALID,0,VALID,24.4327,VALID,26,VALID,0,
2008-07-17, 00:21:04,VALID,1008,VALID,0,VALID,94.1781,VALID,0,VALID,24.4327,VALID,26,VALID,0,
2008-07-17, 00:22:04,VALID,1007.97,VALID,0,VALID,94.1399,VALID,0,VALID,24.4327,VALID,26,VALID,0,
2008-07-17, 00:23:04,VALID,1007.96,VALID,0,VALID,94.1476,VALID,0,VALID,24.454,VALID,26,VALID,0,
2008-07-17, 00:24:04,VALID,1007.96,VALID,0,VALID,94.0865,VALID,0,VALID,24.4522,VALID,26,VALID,0.0902344,
2008-07-17, 00:25:04,VALID,1007.96,VALID,0,VALID,94.0484,VALID,0,VALID,24.4327,VALID,26,VALID,0.115625,
2008-07-17, 00:26:04,VALID,1007.96,VALID,0,VALID,93.9645,VALID,0.105969,VALID,24.454,VALID,26,VALID,0.211719,
2008-07-17, 00:27:04,VALID,1007.98,VALID,0,VALID,93.995,VALID,0.105969,VALID,24.4735,VALID,26,VALID,0.204297,
2008-07-17, 00:28:04,VALID,1007.99,VALID,0,VALID,94.0408,VALID,0,VALID,24.4522,VALID,26,VALID,0.271484,
2008-07-17, 00:29:04,VALID,1007.95,VALID,0,VALID,94.1094,VALID,0.105969,VALID,24.4735,VALID,26,VALID,0.221094,
2008-07-17, 00:30:04,VALID,1007.94,VALID,0,VALID,94.1018,VALID,0.105969,VALID,24.4735,VALID,26,VALID,0.161719,
2008-07-17, 00:31:04,VALID,1007.96,VALID,0,VALID,94.0484,VALID,0.105969,VALID,24.4327,VALID,26,VALID,0.171875,
2008-07-17, 00:32:04,VALID,1007.94,VALID,0,VALID,94.0179,VALID,0.105969,VALID,24.454,VALID,26,VALID,0.0382813,
2008-07-17, 00:33:04,VALID,1007.94,VALID,0,VALID,94.0713,VALID,0.105969,VALID,24.4735,VALID,26,VALID,0,
2008-07-17, 00:34:04,VALID,1007.92,VALID,0,VALID,94.1476,VALID,0.105969,VALID,24.4522,VALID,26,VALID,0,
2008-07-17, 00:35:04,VALID,1007.96,VALID,0,VALID,94.1857,VALID,0,VALID,24.4735,VALID,26,VALID,0,
2008-07-17, 00:36:04,VALID,1007.93,VALID,0,VALID,94.1857,VALID,0.105969,VALID,24.4522,VALID,26,VALID,0,
2008-07-17, 00:37:04,VALID,1007.97,VALID,0,VALID,94.2086,VALID,0.105969,VALID,24.493,VALID,26,VALID,0,
2008-07-17, 00:38:04,VALID,1007.99,VALID,0,VALID,94.1628,VALID,0.105969,VALID,24.493,VALID,26,VALID,0,
2008-07-17, 00:39:04,VALID,1007.97,VALID,0,VALID,94.0942,VALID,0.105969,VALID,24.4735,VALID,26,VALID,0.390625,
2008-07-17, 00:40:04,VALID,1007.98,VALID,0,VALID,94.0942,VALID,0.105969,VALID,24.4522,VALID,26,VALID,0.3125,
2008-07-17, 00:41:04,VALID,1007.96,VALID,0,VALID,94.1094,VALID,0.105969,VALID,24.4522,VALID,26,VALID,0.342578,
2008-07-17, 00:42:04,VALID,1007.92,VALID,0,VALID,94.1094,VALID,0,VALID,24.4132,VALID,26,VALID,0.258594,
2008-07-17, 00:43:04,VALID,1007.9,VALID,0,VALID,94.1781,VALID,0,VALID,24.454,VALID,26,VALID,0.123438,
2008-07-17, 00:44:04,VALID,1007.87,VALID,0,VALID,94.1857,VALID,0.105969,VALID,24.4327,VALID,26,VALID,0.3625,
2008-07-17, 00:45:04,VALID,1007.86,VALID,0,VALID,94.1704,VALID,0,VALID,24.415,VALID,26,VALID,0.245312,
2008-07-17, 00:46:04,VALID,1007.87,VALID,0,VALID,94.1781,VALID,0,VALID,24.415,VALID,26,VALID,0.194141,
2008-07-17, 00:47:04,VALID,1007.86,VALID,0,VALID,94.1552,VALID,0,VALID,24.415,VALID,26,VALID,0.382422,
2008-07-17, 00:48:04,VALID,1007.85,VALID,0,VALID,94.1857,VALID,0,VALID,24.4364,VALID,26,VALID,0.355469,
2008-07-17, 00:49:04,VALID,1007.85,VALID,0,VALID,94.2391,VALID,0,VALID,24.4364,VALID,36,VALID,0.322266,
2008-07-17, 00:50:04,VALID,1007.84,VALID,0,VALID,94.2543,VALID,0,VALID,24.4169,VALID,35,VALID,0.636328,
2008-07-17, 00:51:04,VALID,1007.89,VALID,0,VALID,94.2543,VALID,0,VALID,24.3761,VALID,25,VALID,0.525781,
2008-07-17, 00:52:04,VALID,1007.88,VALID,0,VALID,94.2772,VALID,0,VALID,24.3566,VALID,29,VALID,0.360938,
2008-07-17, 00:53:04,VALID,1007.91,VALID,0,VALID,94.3458,VALID,0,VALID,24.3566,VALID,29,VALID,0.137109,
2008-07-17, 00:54:04,VALID,1007.91,VALID,0,VALID,94.3382,VALID,0,VALID,24.3566,VALID,23,VALID,0.298047,
2008-07-17, 00:55:04,VALID,1007.89,VALID,0,VALID,94.4373,VALID,0,VALID,24.3779,VALID,23,VALID,0.0171875,
2008-07-17, 00:56:04,VALID,1007.9,VALID,0,VALID,94.4755,VALID,0,VALID,24.3566,VALID,23,VALID,0.03125,
2008-07-17, 00:57:04,VALID,1007.86,VALID,0,VALID,94.4983,VALID,0,VALID,24.3779,VALID,23,VALID,0.0601562,
2008-07-17, 00:58:04,VALID,1007.89,VALID,0,VALID,94.4678,VALID,0,VALID,24.3584,VALID,23,VALID,0.078125,
2008-07-17, 00:59:04,VALID,1007.9,VALID,0,VALID,94.445,VALID,0,VALID,24.3371,VALID,23,VALID,0.351172,
2008-07-17, 01:00:04,VALID,1007.87,VALID,0,VALID,94.4755,VALID,0,VALID,24.3371,VALID,23,VALID,0.0679687,
2008-07-17, 01:01:04,VALID,1007.88,VALID,0,VALID,94.4526,VALID,0,VALID,24.3389,VALID,23,VALID,0.241797,
2008-07-17, 01:02:04,VALID,1007.88,VALID,0,VALID,94.4983,VALID,0,VALID,24.3176,VALID,23,VALID,0.183203,
2008-07-17, 01:03:04,VALID,1007.87,VALID,0,VALID,94.4526,VALID,0,VALID,24.3194,VALID,23,VALID,0.176953,
2008-07-17, 01:04:04,VALID,1007.88,VALID,0,VALID,94.4373,VALID,0,VALID,24.2981,VALID,29,VALID,0.325,
2008-07-17, 01:05:04,VALID,1007.89,VALID,0,VALID,94.4068,VALID,0,VALID,24.2981,VALID,31,VALID,0.492188,
2008-07-17, 01:06:04,VALID,1007.84,VALID,0,VALID,94.3763,VALID,0,VALID,24.2786,VALID,31,VALID,0.554297,
2008-07-17, 01:07:04,VALID,1007.85,VALID,0,VALID,94.3611,VALID,0,VALID,24.2786,VALID,36,VALID,0.353516,
2008-07-17, 01:08:04,VALID,1007.82,VALID,0,VALID,94.3611,VALID,0,VALID,24.2591,VALID,36,VALID,0.296484,
2008-07-17, 01:09:04,VALID,1007.81,VALID,0,VALID,94.3763,VALID,0,VALID,24.2805,VALID,36,VALID,0.266797,
2008-07-17, 01:10:04,VALID,1007.78,VALID,0,VALID,94.4221,VALID,0,VALID,24.2396,VALID,36,VALID,0.0894531,
2008-07-17, 01:11:04,VALID,1007.73,VALID,0,VALID,94.4145,VALID,0,VALID,24.2591,VALID,36,VALID,0.179297,
2008-07-17, 01:12:04,VALID,1007.72,VALID,0,VALID,94.445,VALID,0,VALID,24.2805,VALID,36,VALID,0.310937,
2008-07-17, 01:13:04,VALID,1007.74,VALID,0,VALID,94.4221,VALID,0,VALID,24.2591,VALID,36,VALID,0.270703,
2008-07-17, 01:14:04,VALID,1007.72,VALID,0,VALID,94.3916,VALID,0,VALID,24.2396,VALID,36,VALID,0.642187,
2008-07-17, 01:15:04,VALID,1007.73,VALID,0,VALID,94.3534,VALID,0,VALID,24.2202,VALID,23,VALID,0.551172,
2008-07-17, 01:16:04,VALID,1007.72,VALID,0,VALID,94.3687,VALID,0,VALID,24.2007,VALID,32,VALID,0.477344,
2008-07-17, 01:17:04,VALID,1007.75,VALID,0,VALID,94.3611,VALID,0,VALID,24.2007,VALID,51,VALID,0.379297,
2008-07-17, 01:18:04,VALID,1007.72,VALID,0,VALID,94.3839,VALID,0,VALID,24.2007,VALID,49,VALID,0.429688,
2008-07-17, 01:19:04,VALID,1007.72,VALID,0,VALID,94.4145,VALID,0,VALID,24.2007,VALID,27,VALID,0.277734,
2008-07-17, 01:20:04,VALID,1007.72,VALID,0,VALID,94.4297,VALID,0,VALID,24.2025,VALID,27,VALID,0.189453,
2008-07-17, 01:21:04,VALID,1007.72,VALID,0,VALID,94.4297,VALID,0,VALID,24.2007,VALID,27,VALID,0.126953,
2008-07-17, 01:22:04,VALID,1007.72,VALID,0,VALID,94.445,VALID,0,VALID,24.2025,VALID,37,VALID,0.430078,
2008-07-17, 01:23:04,VALID,1007.71,VALID,0,VALID,94.445,VALID,0,VALID,24.1812,VALID,48,VALID,0.378125,
2008-07-17, 01:24:04,VALID,1007.69,VALID,0,VALID,94.4678,VALID,0,VALID,24.1812,VALID,39,VALID,0.177344,
2008-07-17, 01:25:04,VALID,1007.7,VALID,0,VALID,94.4907,VALID,0,VALID,24.1812,VALID,45,VALID,0.668359,
2008-07-17, 01:26:04,VALID,1007.7,VALID,0,VALID,94.4373,VALID,0,VALID,24.1812,VALID,43,VALID,0.427734,
2008-07-17, 01:27:04,VALID,1007.68,VALID,0,VALID,94.445,VALID,0,VALID,24.183,VALID,66,VALID,0.585156,
2008-07-17, 01:28:04,VALID,1007.68,VALID,0,VALID,94.4297,VALID,0,VALID,24.1617,VALID,64,VALID,0.646094,
2008-07-17, 01:29:04,VALID,1007.69,VALID,0,VALID,94.3992,VALID,0,VALID,24.1422,VALID,67,VALID,0.655469,
2008-07-17, 01:30:04,VALID,1007.69,VALID,0,VALID,94.3839,VALID,0.105969,VALID,24.1599,VALID,74,VALID,0.960938,
2008-07-17, 01:31:04,VALID,1007.7,VALID,0,VALID,94.3458,VALID,0,VALID,24.1599,VALID,71,VALID,0.848828,
2008-07-17, 01:32:04,VALID,1007.67,VALID,0,VALID,94.3077,VALID,0.105969,VALID,24.1793,VALID,78,VALID,0.734375,
2008-07-17, 01:33:04,VALID,1007.67,VALID,0,VALID,94.2772,VALID,0.105969,VALID,24.1599,VALID,77,VALID,0.98125,
2008-07-17, 01:34:04,VALID,1007.62,VALID,0,VALID,94.1933,VALID,0.105969,VALID,24.1793,VALID,62,VALID,1.0918,
2008-07-17, 01:35:04,VALID,1007.61,VALID,0,VALID,94.1399,VALID,0.105969,VALID,24.1988,VALID,67,VALID,0.615625,
2008-07-17, 01:36:04,VALID,1007.58,VALID,0,VALID,94.1476,VALID,0.105969,VALID,24.2183,VALID,68,VALID,0.363281,
2008-07-17, 01:37:04,VALID,1007.58,VALID,0,VALID,94.1247,VALID,0.105969,VALID,24.1988,VALID,61,VALID,0.764453,
2008-07-17, 01:38:04,VALID,1007.54,VALID,0,VALID,94.1171,VALID,0.105969,VALID,24.1988,VALID,71,VALID,0.502344,
2008-07-17, 01:39:04,VALID,1007.51,VALID,0,VALID,94.0713,VALID,0.105969,VALID,24.1775,VALID,82,VALID,0.703516,
2008-07-17, 01:40:04,VALID,1007.53,VALID,0,VALID,94.0255,VALID,0.105969,VALID,24.2183,VALID,71,VALID,0.653516,
2008-07-17, 01:41:04,VALID,1007.49,VALID,0,VALID,93.9722,VALID,0.105969,VALID,24.2183,VALID,50,VALID,0.447266,
2008-07-17, 01:42:04,VALID,1007.49,VALID,0,VALID,93.9493,VALID,0.105969,VALID,24.2183,VALID,58,VALID,0.428516,
2008-07-17, 01:43:04,VALID,1007.51,VALID,0,VALID,93.9188,VALID,0.105969,VALID,24.2183,VALID,44,VALID,0.953125,
2008-07-17, 01:44:04,VALID,1007.47,VALID,0,VALID,93.8959,VALID,0.105969,VALID,24.2183,VALID,16,VALID,0.708594,
2008-07-17, 01:45:04,VALID,1007.47,VALID,0,VALID,93.8883,VALID,0.105969,VALID,24.2378,VALID,52,VALID,0.457422,
2008-07-17, 01:46:04,VALID,1007.47,VALID,0,VALID,93.9112,VALID,0.105969,VALID,24.2396,VALID,52,VALID,0.25,
2008-07-17, 01:47:04,VALID,1007.49,VALID,0,VALID,93.934,VALID,0.105969,VALID,24.2378,VALID,22,VALID,0.571094,
2008-07-17, 01:48:04,VALID,1007.5,VALID,0,VALID,93.9417,VALID,0.105969,VALID,24.2183,VALID,46,VALID,0.224219,
2008-07-17, 01:49:04,VALID,1007.51,VALID,0,VALID,93.9493,VALID,0.105969,VALID,24.2183,VALID,13,VALID,0.358203,
2008-07-17, 01:50:04,VALID,1007.5,VALID,0,VALID,93.9645,VALID,0.105969,VALID,24.2183,VALID,353,VALID,0.0632813,
2008-07-17, 01:51:04,VALID,1007.51,VALID,0,VALID,94.0027,VALID,0.105969,VALID,24.2183,VALID,353,VALID,0.0980469,
2008-07-17, 01:52:04,VALID,1007.52,VALID,0,VALID,94.0103,VALID,0.105969,VALID,24.2202,VALID,7,VALID,0.334766,
2008-07-17, 01:53:04,VALID,1007.56,VALID,0,VALID,94.056,VALID,0.105969,VALID,24.2183,VALID,7,VALID,0.0609375,
2008-07-17, 01:54:04,VALID,1007.59,VALID,0,VALID,94.0789,VALID,0.105969,VALID,24.1988,VALID,11,VALID,0.138672,
2008-07-17, 01:55:04,VALID,1007.55,VALID,0,VALID,94.1094,VALID,0.105969,VALID,24.2183,VALID,356,VALID,0.573828,
2008-07-17, 01:56:04,VALID,1007.59,VALID,0,VALID,94.1323,VALID,0.105969,VALID,24.1988,VALID,34,VALID,0.682813,
2008-07-17, 01:57:04,VALID,1007.61,VALID,0,VALID,94.1247,VALID,0.105969,VALID,24.1988,VALID,34,VALID,0.602734,
2008-07-17, 01:58:04,VALID,1007.58,VALID,0,VALID,94.1323,VALID,0.105969,VALID,24.1793,VALID,35,VALID,0.572656,
2008-07-17, 01:59:04,VALID,1007.6,VALID,0,VALID,94.1704,VALID,0.105969,VALID,24.1793,VALID,51,VALID,0.949609,
2008-07-17, 02:00:04,VALID,1007.59,VALID,0,VALID,94.2162,VALID,0,VALID,24.1812,VALID,40,VALID,0.463672,
2008-07-17, 02:01:04,VALID,1007.56,VALID,0,VALID,94.2543,VALID,0,VALID,24.2007,VALID,30,VALID,0.642969,
2008-07-17, 02:02:04,VALID,1007.55,VALID,0,VALID,94.2772,VALID,0,VALID,24.1812,VALID,48,VALID,0.259766,
2008-07-17, 02:03:04,VALID,1007.52,VALID,0,VALID,94.3306,VALID,0,VALID,24.2007,VALID,48,VALID,0.248047,
2008-07-17, 02:04:04,VALID,1007.51,VALID,0,VALID,94.2543,VALID,0,VALID,24.2007,VALID,50,VALID,0.436719,
2008-07-17, 02:05:04,VALID,1007.47,VALID,0,VALID,94.2314,VALID,0,VALID,24.2007,VALID,40,VALID,0.166797,
2008-07-17, 02:06:04,VALID,1007.46,VALID,0,VALID,94.2391,VALID,0,VALID,24.2202,VALID,358,VALID,0.488281,
2008-07-17, 02:07:04,VALID,1007.42,VALID,0,VALID,94.2467,VALID,0,VALID,24.2202,VALID,341,VALID,0.126172,
2008-07-17, 02:08:04,VALID,1007.45,VALID,0,VALID,94.2086,VALID,0,VALID,24.2202,VALID,22,VALID,0.283594,
2008-07-17, 02:09:04,VALID,1007.42,VALID,0,VALID,94.1171,VALID,0,VALID,24.2396,VALID,26,VALID,0.675391,
2008-07-17, 02:10:04,VALID,1007.41,VALID,0,VALID,94.1018,VALID,0,VALID,24.2591,VALID,281,VALID,0.16875,
2008-07-17, 02:11:04,VALID,1007.4,VALID,0,VALID,94.1171,VALID,0,VALID,24.3,VALID,238,VALID,0.0839844,
2008-07-17, 02:12:04,VALID,1007.39,VALID,0,VALID,94.0789,VALID,0,VALID,24.2981,VALID,233,VALID,0.310937,
2008-07-17, 02:13:04,VALID,1007.38,VALID,0,VALID,94.0027,VALID,0,VALID,24.2981,VALID,106,VALID,0.586328,
2008-07-17, 02:14:04,VALID,1007.37,VALID,0,VALID,93.9645,VALID,0,VALID,24.3176,VALID,84,VALID,0.509375,
2008-07-17, 02:15:04,VALID,1007.34,VALID,0,VALID,93.9035,VALID,0,VALID,24.3371,VALID,110,VALID,0.541016,
2008-07-17, 02:16:04,VALID,1007.31,VALID,0,VALID,93.8502,VALID,0,VALID,24.3371,VALID,95,VALID,0.157031,
2008-07-17, 02:17:04,VALID,1007.3,VALID,0,VALID,93.7586,VALID,0,VALID,24.3566,VALID,47,VALID,0.728125,
2008-07-17, 02:18:04,VALID,1007.28,VALID,0,VALID,93.7434,VALID,0,VALID,24.3779,VALID,63,VALID,0.175391,
2008-07-17, 02:19:04,VALID,1007.27,VALID,0,VALID,93.7205,VALID,0,VALID,24.3761,VALID,246,VALID,0.363672,
2008-07-17, 02:20:04,VALID,1007.3,VALID,0,VALID,93.6824,VALID,0,VALID,24.3547,VALID,242,VALID,0.321094,
2008-07-17, 02:21:04,VALID,1007.29,VALID,0,VALID,93.6671,VALID,0,VALID,24.3956,VALID,65,VALID,0.219531,
2008-07-17, 02:22:04,VALID,1007.28,VALID,0,VALID,93.6442,VALID,0,VALID,24.3956,VALID,71,VALID,0.332422,
2008-07-17, 02:23:04,VALID,1007.31,VALID,0,VALID,93.6061,VALID,0,VALID,24.3956,VALID,71,VALID,0.00820312,
2008-07-17, 02:24:04,VALID,1007.3,VALID,0,VALID,93.6442,VALID,0,VALID,24.415,VALID,71,VALID,0.244531,
2008-07-17, 02:25:04,VALID,1007.27,VALID,0,VALID,93.6824,VALID,0,VALID,24.415,VALID,29,VALID,0.267188,
2008-07-17, 02:26:04,VALID,1007.26,VALID,0,VALID,93.6137,VALID,0,VALID,24.3956,VALID,1,VALID,0.248828,
2008-07-17, 02:27:04,VALID,1007.27,VALID,0,VALID,93.6366,VALID,0,VALID,24.3761,VALID,25,VALID,0.433594,
2008-07-17, 02:28:04,VALID,1007.23,VALID,0,VALID,93.7205,VALID,0,VALID,24.3761,VALID,25,VALID,0.222656,
2008-07-17, 02:29:04,VALID,1007.23,VALID,0,VALID,93.8044,VALID,0,VALID,24.3761,VALID,25,VALID,0,
2008-07-17, 02:30:04,VALID,1007.21,VALID,0,VALID,93.8044,VALID,0,VALID,24.3761,VALID,25,VALID,0.0335938,
2008-07-17, 02:31:04,VALID,1007.22,VALID,0,VALID,93.8425,VALID,0,VALID,24.3566,VALID,25,VALID,0.0539063,
2008-07-17, 02:32:04,VALID,1007.21,VALID,0,VALID,93.873,VALID,0,VALID,24.3566,VALID,25,VALID,0,
2008-07-17, 02:33:04,VALID,1007.19,VALID,0,VALID,93.8578,VALID,0,VALID,24.3566,VALID,347,VALID,0.360156,
2008-07-17, 02:34:04,VALID,1007.21,VALID,0,VALID,93.9188,VALID,0,VALID,24.3761,VALID,345,VALID,0.361328,
2008-07-17, 02:35:04,VALID,1007.16,VALID,0,VALID,93.8959,VALID,0,VALID,24.4169,VALID,345,VALID,0.156641,
2008-07-17, 02:36:04,VALID,1007.13,VALID,0,VALID,93.8273,VALID,0,VALID,24.3761,VALID,345,VALID,0.0742188,
2008-07-17, 02:37:04,VALID,1007.15,VALID,0,VALID,93.8349,VALID,0,VALID,24.3956,VALID,306,VALID,0.518359,
2008-07-17, 02:38:04,VALID,1007.13,VALID,0,VALID,93.7739,VALID,0,VALID,24.3956,VALID,306,VALID,0.266406,
2008-07-17, 02:39:04,VALID,1007.1,VALID,0,VALID,93.8273,VALID,0,VALID,24.4169,VALID,306,VALID,0.185937,
2008-07-17, 02:40:04,VALID,1007.1,VALID,0,VALID,93.8425,VALID,0,VALID,24.4132,VALID,306,VALID,0.0320312,
2008-07-17, 02:41:04,VALID,1007.09,VALID,0,VALID,93.8502,VALID,0,VALID,24.415,VALID,306,VALID,0.190234,
2008-07-17, 02:42:04,VALID,1007.07,VALID,0,VALID,93.8807,VALID,0,VALID,24.415,VALID,306,VALID,0.0242187,
2008-07-17, 02:43:04,VALID,1007.07,VALID,0,VALID,93.8883,VALID,0,VALID,24.415,VALID,306,VALID,0,
2008-07-17, 02:44:04,VALID,1007.07,VALID,0,VALID,93.8349,VALID,0,VALID,24.3956,VALID,306,VALID,0.084375,
2008-07-17, 02:45:04,VALID,1007.03,VALID,0,VALID,93.812,VALID,0,VALID,24.3956,VALID,306,VALID,0,
2008-07-17, 02:46:04,VALID,1006.99,VALID,0,VALID,93.7891,VALID,0,VALID,24.3761,VALID,306,VALID,0.0222656,
2008-07-17, 02:47:04,VALID,1006.98,VALID,0,VALID,93.8502,VALID,0,VALID,24.3761,VALID,306,VALID,0.131641,
2008-07-17, 02:48:04,VALID,1007.01,VALID,0,VALID,93.873,VALID,0,VALID,24.3547,VALID,306,VALID,0.0160156,
2008-07-17, 02:49:04,VALID,1006.98,VALID,0,VALID,93.9264,VALID,0,VALID,24.3761,VALID,306,VALID,0.0886719,
2008-07-17, 02:50:04,VALID,1006.96,VALID,0,VALID,93.9569,VALID,0,VALID,24.3956,VALID,306,VALID,0,
2008-07-17, 02:51:04,VALID,1006.97,VALID,0,VALID,93.9798,VALID,0,VALID,24.3761,VALID,306,VALID,0.164844,
2008-07-17, 02:52:04,VALID,1006.96,VALID,0,VALID,93.9722,VALID,0,VALID,24.3761,VALID,306,VALID,0.126563,
2008-07-17, 02:53:04,VALID,1006.95,VALID,0,VALID,93.9874,VALID,0,VALID,24.3742,VALID,306,VALID,0.109375,
2008-07-17, 02:54:04,VALID,1006.98,VALID,0,VALID,93.995,VALID,0,VALID,24.3956,VALID,306,VALID,0,
2008-07-17, 02:55:04,VALID,1006.97,VALID,0,VALID,93.9417,VALID,0,VALID,24.3956,VALID,306,VALID,0,
2008-07-17, 02:56:04,VALID,1006.96,VALID,0,VALID,93.9417,VALID,0,VALID,24.415,VALID,306,VALID,0,
2008-07-17, 02:57:04,VALID,1006.95,VALID,0,VALID,93.9112,VALID,0,VALID,24.3956,VALID,306,VALID,0,
2008-07-17, 02:58:04,VALID,1006.95,VALID,0,VALID,93.9112,VALID,0,VALID,24.3956,VALID,306,VALID,0,
2008-07-17, 02:59:04,VALID,1006.95,VALID,0,VALID,94.0332,VALID,0,VALID,24.4345,VALID,253,VALID,0,
2008-07-17, 03:00:04,VALID,1006.95,VALID,0,VALID,93.9645,VALID,0,VALID,24.4345,VALID,238,VALID,0,
2008-07-17, 03:01:04,VALID,1006.93,VALID,0,VALID,93.9188,VALID,0,VALID,24.4345,VALID,239,VALID,0,
2008-07-17, 03:02:04,VALID,1006.94,VALID,0,VALID,93.8654,VALID,0,VALID,24.4345,VALID,239,VALID,0,
2008-07-17, 03:03:04,VALID,1006.95,VALID,0,VALID,93.7739,VALID,0,VALID,24.454,VALID,251,VALID,0,
2008-07-17, 03:04:04,VALID,1006.93,VALID,0,VALID,93.7891,VALID,0,VALID,24.454,VALID,251,VALID,0,
2008-07-17, 03:05:04,VALID,1006.96,VALID,0,VALID,93.8273,VALID,0,VALID,24.454,VALID,311,VALID,0,
2008-07-17, 03:06:04,VALID,1006.98,VALID,0,VALID,93.8502,VALID,0,VALID,24.4735,VALID,311,VALID,0,
2008-07-17, 03:07:04,VALID,1007.01,VALID,0,VALID,93.8196,VALID,0,VALID,24.415,VALID,311,VALID,0,
2008-07-17, 03:08:04,VALID,1007.01,VALID,0,VALID,93.8349,VALID,0,VALID,24.415,VALID,311,VALID,0,
2008-07-17, 03:09:04,VALID,1007.02,VALID,0,VALID,93.8578,VALID,0,VALID,24.3956,VALID,328,VALID,0.347656,
2008-07-17, 03:10:04,VALID,1007.03,VALID,0,VALID,93.8502,VALID,0,VALID,24.3761,VALID,328,VALID,0.223047,
2008-07-17, 03:11:04,VALID,1007.06,VALID,0,VALID,93.9722,VALID,0,VALID,24.3761,VALID,328,VALID,0.0421875,
2008-07-17, 03:12:04,VALID,1007.04,VALID,0,VALID,93.9874,VALID,0,VALID,24.3352,VALID,328,VALID,0.149219,
2008-07-17, 03:13:04,VALID,1007.03,VALID,0,VALID,94.0332,VALID,0,VALID,24.3566,VALID,328,VALID,0,
2008-07-17, 03:14:04,VALID,1007.04,VALID,0,VALID,94.0942,VALID,0,VALID,24.3566,VALID,328,VALID,0.182031,
2008-07-17, 03:15:04,VALID,1007.03,VALID,0,VALID,94.1323,VALID,0,VALID,24.3371,VALID,328,VALID,0.127344,
2008-07-17, 03:16:04,VALID,1007.05,VALID,0,VALID,94.2162,VALID,0,VALID,24.3566,VALID,328,VALID,0.179297,
2008-07-17, 03:17:04,VALID,1007.04,VALID,0,VALID,94.2391,VALID,0,VALID,24.3371,VALID,328,VALID,0.187109,
2008-07-17, 03:18:04,VALID,1007.03,VALID,0,VALID,94.2391,VALID,0,VALID,24.3371,VALID,328,VALID,0.329297,
2008-07-17, 03:19:04,VALID,1007.02,VALID,0,VALID,94.2848,VALID,0,VALID,24.3371,VALID,328,VALID,0.0726563,
2008-07-17, 03:20:04,VALID,1007.06,VALID,0,VALID,94.2848,VALID,0,VALID,24.3371,VALID,328,VALID,0.298047,
2008-07-17, 03:21:04,VALID,1007.05,VALID,0,VALID,94.2924,VALID,0,VALID,24.3566,VALID,328,VALID,0.288672,
2008-07-17, 03:22:04,VALID,1007.06,VALID,0,VALID,94.2314,VALID,0,VALID,24.3371,VALID,329,VALID,0.3625,
2008-07-17, 03:23:04,VALID,1007.07,VALID,0,VALID,94.2162,VALID,0,VALID,24.3371,VALID,347,VALID,0.311328,
2008-07-17, 03:24:04,VALID,1007.11,VALID,0,VALID,94.1857,VALID,0,VALID,24.2963,VALID,353,VALID,0.308203,
2008-07-17, 03:25:04,VALID,1007.08,VALID,0,VALID,94.1704,VALID,0,VALID,24.3176,VALID,353,VALID,0.380078,
2008-07-17, 03:26:04,VALID,1007.06,VALID,0,VALID,94.1628,VALID,0,VALID,24.3176,VALID,353,VALID,0.170703,
2008-07-17, 03:27:04,VALID,1007.03,VALID,0,VALID,94.2467,VALID,0,VALID,24.3176,VALID,353,VALID,0.075,
2008-07-17, 03:28:04,VALID,1007.01,VALID,0,VALID,94.2467,VALID,0,VALID,24.3389,VALID,353,VALID,0.271875,
2008-07-17, 03:29:04,VALID,1007,VALID,0,VALID,94.2238,VALID,0,VALID,24.2981,VALID,353,VALID,0,
2008-07-17, 03:30:04,VALID,1006.97,VALID,0,VALID,94.2543,VALID,0,VALID,24.2981,VALID,353,VALID,0,
2008-07-17, 03:31:04,VALID,1006.95,VALID,0,VALID,94.2848,VALID,0,VALID,24.3176,VALID,353,VALID,0,
2008-07-17, 03:32:04,VALID,1006.96,VALID,0,VALID,94.2543,VALID,0,VALID,24.2981,VALID,353,VALID,0,
2008-07-17, 03:33:04,VALID,1006.93,VALID,0,VALID,94.2162,VALID,0,VALID,24.2981,VALID,353,VALID,0,
2008-07-17, 03:34:04,VALID,1006.94,VALID,0,VALID,94.2009,VALID,0,VALID,24.2981,VALID,353,VALID,0.105859,
2008-07-17, 03:35:04,VALID,1006.92,VALID,0,VALID,94.2162,VALID,0,VALID,24.3176,VALID,353,VALID,0,
2008-07-17, 03:36:04,VALID,1006.92,VALID,0,VALID,94.2162,VALID,0,VALID,24.3176,VALID,353,VALID,0,
2008-07-17, 03:37:04,VALID,1006.9,VALID,0,VALID,94.2467,VALID,0,VALID,24.2981,VALID,353,VALID,0,
2008-07-17, 03:38:04,VALID,1006.88,VALID,0,VALID,94.2391,VALID,0,VALID,24.2981,VALID,353,VALID,0,
2008-07-17, 03:39:04,VALID,1006.87,VALID,0,VALID,94.2238,VALID,0,VALID,24.3176,VALID,353,VALID,0.104687,
2008-07-17, 03:40:04,VALID,1006.85,VALID,0,VALID,94.2619,VALID,0,VALID,24.2963,VALID,353,VALID,0.467187,
2008-07-17, 03:41:04,VALID,1006.84,VALID,0,VALID,94.3001,VALID,0,VALID,24.3176,VALID,353,VALID,0.552344,
2008-07-17, 03:42:04,VALID,1006.82,VALID,0,VALID,94.2543,VALID,0,VALID,24.3176,VALID,353,VALID,0.460938,
2008-07-17, 03:43:04,VALID,1006.81,VALID,0,VALID,94.2391,VALID,0,VALID,24.2981,VALID,353,VALID,0.360938,
2008-07-17, 03:44:04,VALID,1006.82,VALID,0,VALID,94.2467,VALID,0,VALID,24.2786,VALID,353,VALID,0.384766,
2008-07-17, 03:45:04,VALID,1006.83,VALID,0,VALID,94.3077,VALID,0,VALID,24.2786,VALID,353,VALID,0.348828,